2023/10/26 00:00:00, 0.0, 9.3
2023/10/26 00:10:00, 0.0, 9.1
2023/10/26 00:20:00, 0.0, 9.1
2023/10/26 00:30:00, 0.0, 9.1
2023/10/26 00:40:00, 0.0, 9.3
2023/10/26 00:50:00, 0.0, 9.3
2023/10/26 01:00:00, 0.0, 9.4
2023/10/26 01:10:00, 0.0, 9.3
2023/10/26 01:20:00, 0.0, 9.1
2023/10/26 01:30:00, 0.0, 9.2
2023/10/26 01:40:00, 0.0, 9.2
2023/10/26 01:50:00, 0.0, 9.6
2023/10/26 02:00:00, 0.0, 8.9
2023/10/26 02:10:00, 0.0, 8.8
2023/10/26 02:20:00, 0.0, 8.9
2023/10/26 02:30:00, 0.0, 8.9
2023/10/26 02:40:00, 0.0, 8.9
2023/10/26 02:50:00, 0.0, 8.8
2023/10/26 03:00:00, 0.0, 8.6
2023/10/26 03:10:00, 0.0, 8.7
2023/10/26 03:20:00, 0.0, 9.2
2023/10/26 03:30:00, 0.0, 9.0
2023/10/26 03:40:00, 0.0, 9.0
2023/10/26 03:50:00, 0.0, 9.2
2023/10/26 04:00:00, 0.0, 9.4
2023/10/26 04:10:00, 0.0, 9.3
2023/10/26 04:20:00, 0.0, 9.0
2023/10/26 04:30:00, 0.0, 9.0
2023/10/26 04:40:00, 0.0, 9.2
2023/10/26 04:50:00, 0.0, 9.0
2023/10/26 05:00:00, 0.0, 8.9
2023/10/26 05:10:00, 0.0, 9.1
2023/10/26 05:20:00, 0.0, 9.0
2023/10/26 05:30:00, 0.0, 9.1
2023/10/26 05:40:00, 0.0, 9.1
2023/10/26 05:50:00, 0.0, 9.1
2023/10/26 06:00:00, 0.0, 8.7
2023/10/26 06:10:00, 0.0, 9.6
2023/10/26 06:20:00, 0.0, 9.6
2023/10/26 06:30:00, 0.0, 9.7
2023/10/26 06:40:00, 0.0, 9.8
2023/10/26 06:50:00, 0.0, 9.9
2023/10/26 07:00:00, 0.0, 9.6
2023/10/26 07:10:00, 0.0, 9.7
2023/10/26 07:20:00, 0.0,10.0
2023/10/26 07:30:00, 0.0,10.2
2023/10/26 07:40:00, 0.0,10.2
2023/10/26 07:50:00, 0.0,10.3
2023/10/26 08:00:00, 0.0,11.0
2023/10/26 08:10:00, 0.0,11.0
2023/10/26 08:20:00, 0.0,11.6
2023/10/26 08:30:00, 0.0,12.2
2023/10/26 08:40:00, 0.0,13.1
2023/10/26 08:50:00, 0.0,13.3
2023/10/26 09:00:00, 0.0,14.1
2023/10/26 09:10:00, 0.0,14.8
2023/10/26 09:20:00, 0.0,15.4
2023/10/26 09:30:00, 0.0,15.7
2023/10/26 09:40:00, 0.9,16.3
2023/10/26 09:50:00, 0.7,16.9
2023/10/26 10:00:00, 0.5,16.7
2023/10/26 10:10:00, 0.5,17.0
2023/10/26 10:20:00, 0.5,16.5
2023/10/26 10:30:00, 0.3,17.0
2023/10/26 10:40:00, 0.1,17.3
2023/10/26 10:50:00, 0.6,18.4
2023/10/26 11:00:00, 0.6,17.9
2023/10/26 11:10:00, 0.4,18.3
2023/10/26 11:20:00, 0.1,19.1
2023/10/26 11:30:00, 0.0,19.0
2023/10/26 11:40:00, 0.0,19.8
2023/10/26 11:50:00, 0.1,19.8
2023/10/26 12:00:00, 0.1,20.3
2023/10/26 12:10:00, 0.0,20.4
2023/10/26 12:20:00, 0.0,20.4
2023/10/26 12:30:00, 0.0,20.2
2023/10/26 12:40:00, 0.0,20.9
2023/10/26 12:50:00, 0.0,20.7
2023/10/26 13:00:00, 0.1,20.1
2023/10/26 13:10:00, 0.1,21.2
2023/10/26 13:20:00, 0.1,21.6
2023/10/26 13:30:00, 0.3,21.7
2023/10/26 13:40:00, 0.2,20.9
2023/10/26 13:50:00, 0.2,21.0
2023/10/26 14:00:00, 0.3,20.0
2023/10/26 14:10:00, 0.3,21.4
2023/10/26 14:20:00, 0.4,21.0
2023/10/26 14:30:00, 0.3,20.2
2023/10/26 14:40:00, 0.1,22.6
2023/10/26 14:50:00, 0.1,23.4
2023/10/26 15:00:00, 0.2,24.0
2023/10/26 15:10:00, 0.4,21.7
2023/10/26 15:20:00, 0.4,22.6
2023/10/26 15:30:00, 0.3,21.8
2023/10/26 15:40:00, 0.3,21.7
2023/10/26 15:50:00, 0.4,20.8
2023/10/26 16:00:00, 0.4,20.4
2023/10/26 16:10:00, 0.4,21.5
2023/10/26 16:20:00, 0.3,21.3
2023/10/26 16:30:00, 0.6,19.4
2023/10/26 16:40:00, 0.7,17.6
2023/10/26 16:50:00, 0.8,16.5
2023/10/26 17:00:00, 0.8,15.7
2023/10/26 17:10:00, 0.8,14.6
2023/10/26 17:20:00, 0.9,13.8
2023/10/26 17:30:00, 0.9,13.4
2023/10/26 17:40:00, 1.0,13.2
2023/10/26 17:50:00, 1.0,12.6
2023/10/26 18:00:00, 1.1,12.2
2023/10/26 18:10:00, 1.0,12.0
2023/10/26 18:20:00, 1.0,11.9
2023/10/26 18:30:00, 0.8,11.7
2023/10/26 18:40:00, 0.8,11.4
2023/10/26 18:50:00, 0.8,11.5
2023/10/26 19:00:00, 0.8,11.4
2023/10/26 19:10:00, 0.8,11.2
2023/10/26 19:20:00, 0.8,11.1
2023/10/26 19:30:00, 0.8,10.9
2023/10/26 19:40:00, 0.6,11.0
2023/10/26 19:50:00, 0.7,11.0
2023/10/26 20:00:00, 0.8,10.7
2023/10/26 20:10:00, 0.7,10.8
2023/10/26 20:20:00, 0.7,10.7
2023/10/26 20:30:00, 0.9,10.4
2023/10/26 20:40:00, 1.1,10.5
2023/10/26 20:50:00, 1.1,10.5
2023/10/26 21:00:00, 1.1,10.4
2023/10/26 21:10:00, 1.3,10.4
2023/10/26 21:20:00, 1.3,10.3
2023/10/26 21:30:00, 1.3,10.7
2023/10/26 21:40:00, 1.1,10.5
2023/10/26 21:50:00, 1.1,10.6
2023/10/26 22:00:00, 1.2,10.9
2023/10/26 22:10:00, 1.1,11.0
2023/10/26 22:20:00, 1.1,11.0
2023/10/26 22:30:00, 1.2,11.3
2023/10/26 22:40:00, 1.1,11.7
2023/10/26 22:50:00, 1.1,11.5
2023/10/26 23:00:00, 0.9,11.6
2023/10/26 23:10:00, 0.8,11.9
2023/10/26 23:20:00, 0.8,11.9
2023/10/26 23:30:00, 0.8,12.0
2023/10/26 23:40:00, 0.8,11.7
2023/10/26 23:50:00, 1.0,12.0
